Wakefield, VA

4:34 PM EDT on August 17, 2019 (GMT -0400)
Wakefield Municipal

Weather History for KAKQ - June, 2019

Change the Weather History Date:

Wednesday, June 5, 2019

  Actual Average (KJGG) Record (KJGG)
Temperature  
Mean Temperature 76 °F -  
Max Temperature 88 °F 82 °F 92 °F (1955)
Min Temperature 66 °F 59 °F 45 °F (1965)
Cooling Degree Days 12    
Growing Degree Days 26 (Base 50)    
Moisture  
Dew Point 67 °F    
Average Humidity 79    
Maximum Humidity 93    
Minimum Humidity 53    
Precipitation  
Precipitation 1.09 in - - ()
Sea Level Pressure  
Sea Level Pressure 29.94 in    
Wind  
Wind Speed 7 mph (SSW)    
Max Wind Speed 23 mph    
Max Gust Speed 36 mph    
Visibility 6 miles    
Events Fog , Rain , Thunderstorm    
Averages and records for this station are not official NWS values.
T = Trace of Precipitation, MM = Missing Value Source: NWS Daily Summary

Daily Weather History Graph

Daily Weather History Graph

Search for Another Location

Airport or City:

Astronomy

Jun. 05, 2019 Rise Set
Actual Time 5:48 AM EDT 8:24 PM EDT
Civil Twilight 5:18 AM EDT 8:54 PM EDT
Nautical Twilight 4:40 AM EDT 9:32 PM EDT
Astronomical Twilight 3:58 AM EDT 10:15 PM EDT
Moon 7:51 AM EDT (6/5) 10:49 PM EDT (6/5)
Length of Visible Light 15h 36m
Length of Day
14h 35m
Waxing Crescent, 6% of the Moon is Illuminated
Jun 5
Waxing Crescent
Jun 10
First Quarter
Jun 17
Full
Jun 25
Last Quarter
Jul 2
New

Hourly Weather History & Observations

Time (EDT) Temp. Heat Index Dew Point Humidity Pressure Visibility Wind Dir Wind Speed Gust Speed Precip Events Conditions
12:54 AM 66.9 °F - 57.0 °F 70% 30.09 in 10.0 mi Variable 3.5 mph - N/A   Clear
1:54 AM 66.9 °F - 57.9 °F 73% 30.07 in 10.0 mi South 3.5 mph - N/A   Clear
2:54 AM 66.9 °F - 59.0 °F 76% 30.06 in 10.0 mi SSW 3.5 mph - N/A   Clear
3:54 AM 66.9 °F - 60.1 °F 79% 30.05 in 10.0 mi Variable 3.5 mph - N/A   Clear
4:54 AM 68.0 °F - 62.1 °F 81% 30.05 in 10.0 mi Variable 4.6 mph - N/A   Clear
5:54 AM 66.9 °F - 62.1 °F 84% 30.04 in 8.0 mi South 4.6 mph - N/A   Clear
6:50 AM 69.8 °F - 62.6 °F 78% 30.05 in 7.0 mi Variable 4.6 mph - N/A   Mostly Cloudy
6:54 AM 69.1 °F - 63.0 °F 81% 30.05 in 7.0 mi SSW 4.6 mph - N/A   Mostly Cloudy
7:18 AM 70.0 °F - 64.0 °F 81% 30.05 in 7.0 mi Variable 4.6 mph - N/A   Scattered Clouds
7:54 AM 72.0 °F - 64.9 °F 78% 30.04 in 7.0 mi SSW 5.8 mph - N/A   Clear
8:54 AM 73.9 °F - 66.0 °F 76% 30.04 in 8.0 mi SW 11.5 mph 17.3 mph N/A   Clear
9:54 AM 77.0 °F - 66.9 °F 71% 30.03 in 7.0 mi SSW 10.4 mph 17.3 mph N/A   Scattered Clouds
10:11 AM 77.0 °F - 68.0 °F 74% 30.02 in 7.0 mi SW 9.2 mph - N/A   Mostly Cloudy
10:43 AM 79.0 °F - 68.0 °F 69% 30.01 in 7.0 mi SSW 11.5 mph 19.6 mph N/A   Scattered Clouds
10:54 AM 80.1 °F 82.9 °F 69.1 °F 69% 30.01 in 7.0 mi SSW 12.7 mph 18.4 mph N/A   Scattered Clouds
11:42 AM 82.0 °F 84.9 °F 68.0 °F 62% 29.99 in 8.0 mi SSW 9.2 mph 21.9 mph N/A   Mostly Cloudy
11:54 AM 81.0 °F 83.8 °F 68.0 °F 65% 29.99 in 8.0 mi SW 11.5 mph 18.4 mph N/A   Mostly Cloudy
12:18 PM 81.0 °F 83.8 °F 68.0 °F 65% 29.98 in 7.0 mi SW 8.1 mph 16.1 mph N/A   Scattered Clouds
12:54 PM 82.9 °F 86.5 °F 69.1 °F 63% 29.96 in 8.0 mi SSW 10.4 mph 18.4 mph N/A   Scattered Clouds
1:54 PM 84.9 °F 88.2 °F 68.0 °F 57% 29.93 in 7.0 mi SW 12.7 mph 21.9 mph N/A   Scattered Clouds
2:54 PM 87.1 °F 90.6 °F 68.0 °F 53% 29.90 in 7.0 mi SW 11.5 mph 24.2 mph N/A   Partly Cloudy
3:54 PM 86.0 °F 89.4 °F 68.0 °F 55% 29.86 in 6.0 mi SW 8.1 mph - N/A   Haze
4:27 PM 84.9 °F 88.2 °F 68.0 °F 57% 29.86 in 7.0 mi South 11.5 mph 19.6 mph 0.00 in Thunderstorm Mostly Cloudy
4:40 PM 82.9 °F 85.8 °F 68.0 °F 60% 29.86 in 7.0 mi SSW 9.2 mph - 0.00 in Thunderstorm Thunderstorm
4:54 PM 82.0 °F 84.9 °F 68.0 °F 62% 29.86 in 7.0 mi Variable 6.9 mph 16.1 mph 0.00 in Thunderstorm Thunderstorm
5:17 PM 79.0 °F - 66.9 °F 66% 29.85 in 6.0 mi South 9.2 mph - N/A   Haze
5:28 PM 75.0 °F - 69.1 °F 82% 29.91 in 0.8 mi West 23.0 mph 35.7 mph 0.00 in Rain Light Rain
5:33 PM 71.1 °F - 68.0 °F 90% 29.90 in 0.2 mi WSW 17.3 mph 35.7 mph 0.34 in Fog , Rain Heavy Rain
5:38 PM 70.0 °F - 68.0 °F 93% 29.88 in 0.2 mi West 16.1 mph 26.5 mph 0.83 in Fog , Rain Heavy Rain
5:46 PM 71.1 °F - 66.9 °F 87% 29.89 in 0.2 mi SW 4.6 mph 24.2 mph 1.06 in Fog , Rain Light Rain
5:49 PM 71.6 °F - 68.0 °F 88% 29.90 in 1.2 mi Variable 4.6 mph 17.3 mph 1.07 in Rain Rain
5:54 PM 71.1 °F - 68.0 °F 90% 29.89 in 2.5 mi Variable 5.8 mph - 1.08 in Rain Light Rain
5:56 PM 72.0 °F - 68.0 °F 87% 29.89 in 3.0 mi SSW 3.5 mph - 0.00 in Rain Light Rain
6:06 PM 72.0 °F - 70.0 °F 93% 29.88 in 8.0 mi Calm Calm - 0.00 in Rain Light Rain
6:15 PM 73.0 °F - 70.0 °F 90% 29.87 in 9.0 mi ESE 3.5 mph - 0.00 in   Scattered Clouds
6:24 PM 73.0 °F - 70.0 °F 90% 29.87 in 8.0 mi Calm Calm - 0.00 in Thunderstorm Partly Cloudy
6:38 PM 73.0 °F - 70.0 °F 90% 29.88 in 7.0 mi South 9.2 mph - 0.00 in Thunderstorm Thunderstorm
6:54 PM 72.0 °F - 69.1 °F 91% 29.87 in 6.0 mi South 8.1 mph - 0.00 in Thunderstorm Scattered Clouds
7:24 PM 72.0 °F - 69.1 °F 91% 29.87 in 6.0 mi South 6.9 mph - N/A Thunderstorm Clear
7:50 PM 73.4 °F - 69.8 °F 88% 29.88 in 7.0 mi South 9.2 mph 17.3 mph N/A   Mostly Cloudy
7:51 PM 73.0 °F - 69.1 °F 87% 29.88 in 7.0 mi South 8.1 mph 17.3 mph N/A   Mostly Cloudy
7:59 PM 73.0 °F - 69.1 °F 87% 29.88 in 8.0 mi SSW 9.2 mph 17.3 mph N/A Thunderstorm Mostly Cloudy
8:14 PM 72.0 °F - 69.1 °F 91% 29.90 in 9.0 mi SSW 6.9 mph 17.3 mph N/A   Overcast
8:22 PM 72.0 °F - 68.0 °F 87% 29.90 in 9.0 mi Variable 6.9 mph - N/A   Overcast
8:54 PM 72.0 °F - 68.0 °F 87% 29.88 in 9.0 mi South 8.1 mph - N/A   Overcast
9:47 PM 72.0 °F - 68.0 °F 87% 29.90 in 4.0 mi South 5.8 mph - 0.00 in Rain Light Rain
9:54 PM 72.0 °F - 69.1 °F 91% 29.89 in 3.0 mi South 9.2 mph - 0.01 in Rain Light Rain
10:07 PM 72.0 °F - 69.1 °F 91% 29.88 in 7.0 mi South 6.9 mph - 0.00 in   Mostly Cloudy
10:54 PM 72.0 °F - 69.1 °F 91% 29.88 in 6.0 mi Variable 5.8 mph - 0.00 in   Overcast
11:30 PM 73.0 °F - 70.0 °F 90% 29.87 in 6.0 mi Variable 6.9 mph 18.4 mph N/A   Overcast
11:52 PM 73.4 °F - 69.8 °F 88% 29.87 in 6.0 mi SW 8.1 mph - N/A   Overcast
11:54 PM 73.0 °F - 70.0 °F 90% 29.87 in 6.0 mi SSW 5.8 mph - N/A   Overcast